ATLAS V CENTAUR R/B, 41329

Orbit data source: Space-Track

ATLAS V CENTAUR R/B, 41329 is space debris in MEO originally from a launch on Fri, 05 Feb 2016 UTC launched from the Air Force Eastern Test Range (AFETR). Debris objects in space refer to the collection of defunct objects orbiting the Earth. Examples of debris include non-operational satellites, rocket bodies, and fragments generated from explosions, collisions, or faulty payload assembly.

Loading next visibility...
Identifier
41329, 2016-007B
Orbit
MEO
Country
Flag of USUS
Related business
Flag of USUnited Launch Alliance/Lockheed Martin (US)
Manufacturer
LMSS Denver
Mission
Spacecraft
Bus & Motor
CENTAUR SEC, RL10C-1
Mass
~2,020 kg wet, 2,020 kg dry
Launch date (UTC)
2016-02-05 (10 years ago)
Launch vehicle
Unknown
Launch site
Air Force Eastern Test Range (AFETR)
Object type
Payload
Rocket body
Debris
Shape & HBR
Cyl + 1 Nozzle, 5.8 m
Radar Cross Section
32.260 m², Large (>1 m²)

Expand to show TLE details & history
Last TLE update: 8 hours ago

TLE from 8 hours ago
0 ATLAS V CENTAUR R/B
1 41329U 16007B   26037.51646394 -.00000023  00000-0  00000-0 0  9995
2 41329  55.6391 108.6493 0110181 353.6374   6.2827  1.91799360 70102
Epoch: 2026-02-06T12:23Z
TLE epoch observation values (Epoch: 2026-02-06T12:23:42.484Z)
Latitude
-0.00001°
Longitude
146.08638°
Altitude
20,686 km
Speed
3.859 km/s
True Right ascension
07h 14m 39s
True Declination
0° 00' 00"
Sunlit
Object was in daylight at epoch
Visualization orbit readout
Latitude
Unknown
Longitude
Unknown
Altitude
Unknown
Speed
Unknown
Apparent Right ascension
Unknown
Apparent Declination
Unknown
Sunlit
N/A
Visualization observer readout
Local Sidereal Time
22:40:43
Azimuth
Unknown
Elevation
Unknown
Doppler factor
Unknown
Orbital elements
Apogee altitude
21,286.759 km
Perigee altitude
20,683.773 km
Semi-major axis
27,363.403 km
Eccentricity
0.01102
Inclination
55.6391°
RAAN
108.6493°
Arg. of periapsis
353.6374°
True anomaly
6.42279°
Mean anomaly
6.2827°
Eccentric anomaly
6.35255°
Mean motion
0.4795 °/min
Orbital period
750.78 mins
BSTAR
0
Loading maneuver chart data...
Computing Atmospheric mass density...
Loading historical data...
Loading historical data...
Loading historical data...
Loading historical data...
Loading historical data...
Loading historical data...
Loading historical data...
Other satellites on launch #7 in the year 2016 (2016-02-05 UTC)

Documentation

Showing up to 5 results
|